Location: Newark
(11.6000°N, 43.1667°E)
Time: 06:39:18
(UTC+00:00)

Envisat - Pass Details

Date: 27 September 2019
Orbit: 764 x 766 km, 98.1° (Epoch: 19 October)

Event Time Altitude Azimuth Distance (km) Brightness Sun altitude
Rises 16:33:25 0° 200° (SSW) 3,220 6.4 -23.6°
Reaches altitude 10° 16:36:26 10° 219° (SW) 2,294 5.9 -24.4°
Maximum altitude 16:39:45 18° 260° (W) 1,821 5.8 -25.2°
Drops below altitude 10° 16:43:04 10° 302° (WNW) 2,294 6.3 -26.0°
Sets 16:46:07 0° 321° (NW) 3,219 6.8 -26.7°
